Location: Unspecified
(48.2082°N, 0.0000°E)
Time: 20:41:26
(UTC+00:00)

Transit 4A - Pass Details

Date: 17 June 2019
Orbit: 862 x 982 km, 66.8° (Epoch: 21 July)

Event Time Altitude Azimuth Distance (km) Brightness Sun altitude
Rises 15:25:30 0° 322° (NW) 3,696 11.3 42.8°
Reaches altitude 10° 15:28:47 10° 338° (NNW) 2,746 10.6 42.3°
Maximum altitude 15:33:36 21° 26° (NNE) 2,027 9.6 41.5°
Drops below altitude 10° 15:38:21 10° 75° (ENE) 2,717 10.0 40.7°
Sets 15:41:35 0° 91° (E) 3,646 10.5 40.2°
